Time,TemperatureF,DewpointF,PressureIn,WindDirection,WindDirectionDegrees,WindSpeedMPH,WindSpeedGustMPH,Humidity,HourlyPrecipIn,Conditions,Clouds,dailyrainin,SoftwareType,DateUTC
2013-08-08 00:01:00,53.0,49.0,30.21,North,-999,-999.0,-999.0,86,-99.99,,,-99.99,,2013-08-08 06:01:00,
2013-08-08 00:12:00,53.0,49.0,30.21,North,-999,-999.0,-999.0,86,-99.99,,,-99.99,,2013-08-08 06:12:00,
2013-08-08 00:21:00,53.0,50.0,30.21,North,-999,-999.0,-999.0,89,-99.99,,,-99.99,,2013-08-08 06:21:00,
2013-08-08 00:32:00,53.0,50.0,30.21,North,-999,-999.0,-999.0,89,-99.99,,,-99.99,,2013-08-08 06:32:00,
2013-08-08 00:43:00,53.0,50.0,30.21,North,-999,-999.0,-999.0,89,-99.99,,,-99.99,,2013-08-08 06:43:00,
2013-08-08 00:52:00,52.0,50.0,30.21,North,-999,-999.0,-999.0,91,-99.99,,,-99.99,,2013-08-08 06:52:00,
2013-08-08 01:01:00,52.0,50.0,30.21,North,-999,-999.0,-999.0,91,-99.99,,,-99.99,,2013-08-08 07:01:00,
2013-08-08 01:12:00,52.0,50.0,30.21,North,-999,-999.0,-999.0,91,-99.99,,,-99.99,,2013-08-08 07:12:00,
2013-08-08 01:22:00,51.0,49.0,30.22,North,-999,-999.0,-999.0,92,-99.99,,,-99.99,,2013-08-08 07:22:00,
2013-08-08 01:32:00,51.0,49.0,30.22,North,-999,-999.0,-999.0,92,-99.99,,,-99.99,,2013-08-08 07:32:00,
2013-08-08 01:43:00,51.0,49.0,30.22,North,-999,-999.0,-999.0,92,-99.99,,,-99.99,,2013-08-08 07:43:00,
2013-08-08 01:53:00,51.0,48.0,30.22,North,-999,-999.0,-999.0,90,-99.99,,,-99.99,,2013-08-08 07:53:00,
2013-08-08 02:02:00,51.0,48.0,30.22,North,-999,-999.0,-999.0,90,-99.99,,,-99.99,,2013-08-08 08:02:00,
2013-08-08 02:11:00,51.0,48.0,30.22,North,-999,-999.0,-999.0,90,-99.99,,,-99.99,,2013-08-08 08:11:00,
2013-08-08 02:22:00,49.0,46.0,30.23,North,-999,-999.0,-999.0,87,-99.99,,,-99.99,,2013-08-08 08:22:00,
2013-08-08 02:32:00,49.0,46.0,30.23,North,-999,-999.0,-999.0,87,-99.99,,,-99.99,,2013-08-08 08:32:00,
2013-08-08 02:43:00,49.0,46.0,30.23,North,-999,-999.0,-999.0,87,-99.99,,,-99.99,,2013-08-08 08:43:00,
2013-08-08 02:53:00,53.0,42.0,30.23,North,-999,-999.0,-999.0,68,-99.99,,,-99.99,,2013-08-08 08:53:00,
2013-08-08 03:01:00,53.0,42.0,30.23,North,-999,-999.0,-999.0,68,-99.99,,,-99.99,,2013-08-08 09:01:00,
2013-08-08 03:12:00,53.0,42.0,30.23,North,-999,-999.0,-999.0,68,-99.99,,,-99.99,,2013-08-08 09:12:00,
2013-08-08 04:22:00,56.0,40.0,30.21,North,-999,-999.0,-999.0,54,-99.99,,,-99.99,,2013-08-08 10:22:00,
2013-08-08 04:32:00,56.0,40.0,30.21,North,-999,-999.0,-999.0,54,-99.99,,,-99.99,,2013-08-08 10:32:00,
2013-08-08 04:43:00,56.0,40.0,30.21,North,-999,-999.0,-999.0,54,-99.99,,,-99.99,,2013-08-08 10:43:00,
2013-08-08 04:52:00,50.0,41.0,30.22,North,-999,-999.0,-999.0,71,-99.99,,,-99.99,,2013-08-08 10:52:00,
2013-08-08 05:02:00,50.0,41.0,30.22,North,-999,-999.0,-999.0,71,-99.99,,,-99.99,,2013-08-08 11:02:00,
2013-08-08 05:11:00,50.0,41.0,30.22,North,-999,-999.0,-999.0,71,-99.99,,,-99.99,,2013-08-08 11:11:00,
2013-08-08 05:22:00,48.0,41.0,30.22,North,-999,-999.0,-999.0,75,-99.99,,,-99.99,,2013-08-08 11:22:00,
2013-08-08 05:32:00,48.0,41.0,30.22,North,-999,-999.0,-999.0,75,-99.99,,,-99.99,,2013-08-08 11:32:00,
2013-08-08 05:43:00,48.0,41.0,30.22,North,-999,-999.0,-999.0,75,-99.99,,,-99.99,,2013-08-08 11:43:00,
2013-08-08 05:52:00,47.0,42.0,30.23,North,-999,-999.0,-999.0,80,-99.99,,,-99.99,,2013-08-08 11:52:00,
2013-08-08 06:01:00,47.0,42.0,30.23,North,-999,-999.0,-999.0,80,-99.99,,,-99.99,,2013-08-08 12:01:00,
2013-08-08 06:11:00,47.0,42.0,30.23,North,-999,-999.0,-999.0,80,-99.99,,,-99.99,,2013-08-08 12:11:00,
2013-08-08 06:21:00,49.0,42.0,30.24,North,-999,-999.0,-999.0,79,-99.99,,,-99.99,,2013-08-08 12:21:00,
2013-08-08 06:32:00,49.0,42.0,30.24,North,-999,-999.0,-999.0,79,-99.99,,,-99.99,,2013-08-08 12:32:00,
2013-08-08 06:43:00,49.0,42.0,30.24,North,-999,-999.0,-999.0,79,-99.99,,,-99.99,,2013-08-08 12:43:00,
2013-08-08 06:52:00,46.0,43.0,30.24,North,-999,-999.0,-999.0,87,-99.99,,,-99.99,,2013-08-08 12:52:00,
2013-08-08 07:01:00,46.0,43.0,30.24,North,-999,-999.0,-999.0,87,-99.99,,,-99.99,,2013-08-08 13:01:00,
2013-08-08 07:11:00,46.0,43.0,30.24,North,-999,-999.0,-999.0,87,-99.99,,,-99.99,,2013-08-08 13:11:00,
2013-08-08 07:22:00,47.0,43.0,30.26,North,-999,-999.0,-999.0,87,-99.99,,,-99.99,,2013-08-08 13:22:00,
2013-08-08 07:32:00,47.0,43.0,30.26,North,-999,-999.0,-999.0,87,-99.99,,,-99.99,,2013-08-08 13:32:00,
2013-08-08 07:43:00,47.0,43.0,30.26,North,-999,-999.0,-999.0,87,-99.99,,,-99.99,,2013-08-08 13:43:00,
2013-08-08 07:53:00,50.0,44.0,30.26,North,-999,-999.0,-999.0,81,-99.99,,,-99.99,,2013-08-08 13:53:00,
2013-08-08 08:02:00,50.0,44.0,30.26,North,-999,-999.0,-999.0,81,-99.99,,,-99.99,,2013-08-08 14:02:00,
2013-08-08 08:11:00,50.0,44.0,30.26,North,-999,-999.0,-999.0,81,-99.99,,,-99.99,,2013-08-08 14:11:00,
2013-08-08 08:22:00,50.0,43.0,30.27,North,-999,-999.0,-999.0,77,-99.99,,,-99.99,,2013-08-08 14:22:00,
2013-08-08 08:32:00,50.0,43.0,30.27,North,-999,-999.0,-999.0,77,-99.99,,,-99.99,,2013-08-08 14:32:00,
2013-08-08 08:43:00,50.0,43.0,30.27,North,-999,-999.0,-999.0,77,-99.99,,,-99.99,,2013-08-08 14:43:00,
2013-08-08 08:53:00,53.0,42.0,30.28,North,-999,-999.0,-999.0,64,-99.99,,,-99.99,,2013-08-08 14:53:00,
2013-08-08 09:02:00,53.0,42.0,30.28,North,-999,-999.0,-999.0,64,-99.99,,,-99.99,,2013-08-08 15:02:00,
2013-08-08 09:11:00,53.0,42.0,30.28,North,-999,-999.0,-999.0,64,-99.99,,,-99.99,,2013-08-08 15:11:00,
2013-08-08 09:32:00,58.0,45.0,30.28,North,-999,-999.0,-999.0,62,-99.99,,,-99.99,,2013-08-08 15:32:00,
2013-08-08 09:43:00,58.0,45.0,30.28,North,-999,-999.0,-999.0,62,-99.99,,,-99.99,,2013-08-08 15:43:00,
2013-08-08 09:53:00,59.0,46.0,30.28,North,-999,-999.0,-999.0,62,-99.99,,,-99.99,,2013-08-08 15:53:00,
2013-08-08 10:01:00,59.0,46.0,30.28,North,-999,-999.0,-999.0,62,-99.99,,,-99.99,,2013-08-08 16:01:00,
2013-08-08 10:11:00,59.0,46.0,30.28,North,-999,-999.0,-999.0,62,-99.99,,,-99.99,,2013-08-08 16:11:00,
2013-08-08 10:22:00,62.0,44.0,30.28,North,-999,-999.0,-999.0,52,-99.99,,,-99.99,,2013-08-08 16:22:00,
2013-08-08 10:32:00,62.0,44.0,30.28,North,-999,-999.0,-999.0,52,-99.99,,,-99.99,,2013-08-08 16:32:00,
2013-08-08 10:42:00,62.0,44.0,30.28,North,-999,-999.0,-999.0,52,-99.99,,,-99.99,,2013-08-08 16:42:00,
2013-08-08 10:52:00,64.0,44.0,30.28,North,-999,-999.0,-999.0,48,-99.99,,,-99.99,,2013-08-08 16:52:00,
2013-08-08 11:02:00,64.0,44.0,30.28,North,-999,-999.0,-999.0,48,-99.99,,,-99.99,,2013-08-08 17:02:00,
2013-08-08 11:11:00,64.0,44.0,30.28,North,-999,-999.0,-999.0,48,-99.99,,,-99.99,,2013-08-08 17:11:00,
2013-08-08 11:21:00,67.0,43.0,30.28,North,-999,-999.0,-999.0,41,-99.99,,,-99.99,,2013-08-08 17:21:00,
2013-08-08 11:32:00,67.0,43.0,30.28,North,-999,-999.0,-999.0,41,-99.99,,,-99.99,,2013-08-08 17:32:00,
2013-08-08 11:43:00,67.0,43.0,30.28,North,-999,-999.0,-999.0,41,-99.99,,,-99.99,,2013-08-08 17:43:00,
2013-08-08 11:52:00,69.0,42.0,30.27,North,-999,-999.0,-999.0,38,-99.99,,,-99.99,,2013-08-08 17:52:00,
2013-08-08 12:01:00,69.0,42.0,30.27,North,-999,-999.0,-999.0,38,-99.99,,,-99.99,,2013-08-08 18:01:00,
2013-08-08 12:11:00,69.0,42.0,30.27,North,-999,-999.0,-999.0,38,-99.99,,,-99.99,,2013-08-08 18:11:00,
2013-08-08 12:22:00,68.0,40.0,30.27,North,-999,-999.0,-999.0,36,-99.99,,,-99.99,,2013-08-08 18:22:00,
2013-08-08 12:32:00,68.0,40.0,30.27,North,-999,-999.0,-999.0,36,-99.99,,,-99.99,,2013-08-08 18:32:00,
2013-08-08 12:43:00,68.0,40.0,30.27,North,-999,-999.0,-999.0,36,-99.99,,,-99.99,,2013-08-08 18:43:00,
2013-08-08 12:53:00,69.0,41.0,30.27,North,-999,-999.0,-999.0,36,-99.99,,,-99.99,,2013-08-08 18:53:00,
2013-08-08 13:01:00,69.0,41.0,30.27,North,-999,-999.0,-999.0,36,-99.99,,,-99.99,,2013-08-08 19:01:00,
2013-08-08 13:11:00,69.0,41.0,30.27,North,-999,-999.0,-999.0,36,-99.99,,,-99.99,,2013-08-08 19:11:00,
2013-08-08 13:22:00,73.0,41.0,30.26,North,-999,-999.0,-999.0,32,-99.99,,,-99.99,,2013-08-08 19:22:00,
2013-08-08 13:32:00,73.0,41.0,30.26,North,-999,-999.0,-999.0,32,-99.99,,,-99.99,,2013-08-08 19:32:00,
2013-08-08 13:43:00,73.0,41.0,30.26,North,-999,-999.0,-999.0,32,-99.99,,,-99.99,,2013-08-08 19:43:00,
2013-08-08 13:54:00,70.0,40.0,30.26,North,-999,-999.0,-999.0,33,-99.99,,,-99.99,,2013-08-08 19:54:00,
2013-08-08 14:02:00,70.0,40.0,30.26,North,-999,-999.0,-999.0,33,-99.99,,,-99.99,,2013-08-08 20:02:00,
2013-08-08 14:11:00,70.0,40.0,30.26,North,-999,-999.0,-999.0,33,-99.99,,,-99.99,,2013-08-08 20:11:00,
2013-08-08 14:22:00,69.0,38.0,30.26,North,-999,-999.0,-999.0,32,-99.99,,,-99.99,,2013-08-08 20:22:00,
2013-08-08 14:32:00,69.0,38.0,30.26,North,-999,-999.0,-999.0,32,-99.99,,,-99.99,,2013-08-08 20:32:00,
2013-08-08 14:42:00,69.0,38.0,30.26,North,-999,-999.0,-999.0,32,-99.99,,,-99.99,,2013-08-08 20:42:00,
2013-08-08 14:52:00,69.0,39.0,30.25,North,-999,-999.0,-999.0,33,-99.99,,,-99.99,,2013-08-08 20:52:00,
2013-08-08 15:01:00,69.0,39.0,30.25,North,-999,-999.0,-999.0,33,-99.99,,,-99.99,,2013-08-08 21:01:00,
2013-08-08 15:34:00,65.0,46.0,30.26,North,-999,-999.0,-999.0,49,-99.99,,,-99.99,,2013-08-08 21:34:00,
2013-08-08 15:46:00,65.0,46.0,30.26,North,-999,-999.0,-999.0,49,-99.99,,,-99.99,,2013-08-08 21:46:00,
2013-08-08 15:56:00,63.0,36.0,30.28,North,-999,-999.0,-999.0,36,-99.99,,,-99.99,,2013-08-08 21:56:00,
2013-08-08 16:04:00,63.0,36.0,30.28,North,-999,-999.0,-999.0,36,-99.99,,,-99.99,,2013-08-08 22:04:00,
2013-08-08 16:37:00,56.0,45.0,30.30,North,-999,-999.0,-999.0,64,-99.99,,,-99.99,,2013-08-08 22:37:00,
2013-08-08 16:49:00,56.0,45.0,30.30,North,-999,-999.0,-999.0,64,-99.99,,,-99.99,,2013-08-08 22:49:00,
2013-08-08 16:57:00,57.0,43.0,30.28,North,-999,-999.0,-999.0,58,-99.99,,,-99.99,,2013-08-08 22:57:00,
2013-08-08 17:04:00,57.0,43.0,30.28,North,-999,-999.0,-999.0,58,-99.99,,,-99.99,,2013-08-08 23:04:00,
2013-08-08 17:14:00,57.0,43.0,30.28,North,-999,-999.0,-999.0,58,-99.99,,,-99.99,,2013-08-08 23:14:00,
2013-08-08 17:23:00,58.0,43.0,30.29,North,-999,-999.0,-999.0,58,-99.99,,,-99.99,,2013-08-08 23:23:00,
2013-08-08 17:37:00,58.0,43.0,30.29,North,-999,-999.0,-999.0,58,-99.99,,,-99.99,,2013-08-08 23:37:00,
2013-08-08 17:57:00,58.0,42.0,30.30,North,-999,-999.0,-999.0,56,-99.99,,,-99.99,,2013-08-08 23:57:00,
2013-08-08 18:03:00,58.0,42.0,30.30,North,-999,-999.0,-999.0,56,-99.99,,,-99.99,,2013-08-09 00:03:00,
2013-08-08 18:14:00,58.0,42.0,30.30,North,-999,-999.0,-999.0,56,-99.99,,,-99.99,,2013-08-09 00:14:00,
2013-08-08 18:24:00,58.0,42.0,30.30,North,-999,-999.0,-999.0,56,-99.99,,,-99.99,,2013-08-09 00:24:00,
2013-08-08 18:56:00,61.0,40.0,30.33,North,-999,-999.0,-999.0,46,-99.99,,,-99.99,,2013-08-09 00:56:00,
2013-08-08 19:02:00,61.0,40.0,30.33,North,-999,-999.0,-999.0,46,-99.99,,,-99.99,,2013-08-09 01:02:00,
2013-08-08 19:14:00,61.0,40.0,30.33,North,-999,-999.0,-999.0,46,-99.99,,,-99.99,,2013-08-09 01:14:00,
2013-08-08 19:23:00,61.0,37.0,30.32,North,-999,-999.0,-999.0,41,-99.99,,,-99.99,,2013-08-09 01:23:00,
2013-08-08 19:34:00,61.0,37.0,30.32,North,-999,-999.0,-999.0,41,-99.99,,,-99.99,,2013-08-09 01:34:00,
2013-08-08 19:45:00,61.0,37.0,30.32,North,-999,-999.0,-999.0,41,-99.99,,,-99.99,,2013-08-09 01:45:00,
2013-08-08 20:04:00,59.0,38.0,30.30,North,-999,-999.0,-999.0,45,-99.99,,,-99.99,,2013-08-09 02:04:00,
2013-08-08 20:12:00,59.0,38.0,30.30,North,-999,-999.0,-999.0,45,-99.99,,,-99.99,,2013-08-09 02:12:00,
2013-08-08 20:23:00,57.0,37.0,30.28,North,-999,-999.0,-999.0,46,-99.99,,,-99.99,,2013-08-09 02:23:00,
2013-08-08 20:36:00,57.0,37.0,30.28,North,-999,-999.0,-999.0,46,-99.99,,,-99.99,,2013-08-09 02:36:00,
2013-08-08 20:45:00,57.0,37.0,30.28,North,-999,-999.0,-999.0,46,-99.99,,,-99.99,,2013-08-09 02:45:00,
2013-08-08 20:55:00,56.0,42.0,30.30,North,-999,-999.0,-999.0,59,-99.99,,,-99.99,,2013-08-09 02:55:00,
2013-08-08 21:05:00,56.0,42.0,30.30,North,-999,-999.0,-999.0,59,-99.99,,,-99.99,,2013-08-09 03:05:00,
2013-08-08 21:14:00,56.0,42.0,30.30,North,-999,-999.0,-999.0,59,-99.99,,,-99.99,,2013-08-09 03:14:00,
2013-08-08 21:47:00,54.0,43.0,30.31,North,-999,-999.0,-999.0,65,-99.99,,,-99.99,,2013-08-09 03:47:00,
2013-08-08 22:01:00,52.0,42.0,30.33,North,-999,-999.0,-999.0,68,-99.99,,,-99.99,,2013-08-09 04:01:00,
2013-08-08 22:12:00,52.0,42.0,30.33,North,-999,-999.0,-999.0,68,-99.99,,,-99.99,,2013-08-09 04:12:00,
2013-08-08 22:22:00,49.0,42.0,30.35,North,-999,-999.0,-999.0,77,-99.99,,,-99.99,,2013-08-09 04:22:00,
2013-08-08 22:33:00,49.0,42.0,30.35,North,-999,-999.0,-999.0,77,-99.99,,,-99.99,,2013-08-09 04:33:00,
2013-08-08 22:43:00,49.0,42.0,30.35,North,-999,-999.0,-999.0,77,-99.99,,,-99.99,,2013-08-09 04:43:00,
2013-08-08 22:53:00,48.0,41.0,30.35,North,-999,-999.0,-999.0,76,-99.99,,,-99.99,,2013-08-09 04:53:00,
2013-08-08 23:02:00,48.0,41.0,30.35,North,-999,-999.0,-999.0,76,-99.99,,,-99.99,,2013-08-09 05:02:00,
2013-08-08 23:11:00,48.0,41.0,30.35,North,-999,-999.0,-999.0,76,-99.99,,,-99.99,,2013-08-09 05:11:00,
2013-08-08 23:21:00,54.0,40.0,30.35,North,-999,-999.0,-999.0,57,-99.99,,,-99.99,,2013-08-09 05:21:00,
2013-08-08 23:32:00,54.0,40.0,30.35,North,-999,-999.0,-999.0,57,-99.99,,,-99.99,,2013-08-09 05:32:00,
2013-08-08 23:43:00,54.0,40.0,30.35,North,-999,-999.0,-999.0,57,-99.99,,,-99.99,,2013-08-09 05:43:00,
2013-08-08 23:52:00,52.0,39.0,30.35,North,-999,-999.0,-999.0,59,-99.99,,,-99.99,,2013-08-09 05:52:00,